User: anonymous   Login
Location: Unspecified
(0.0000°N, 0.0000°E)
Time: 23:43:58
(UTC+00:00)
Language:

Relay 1 - Orbit

View from above orbital plane
View from above orbital plane
View from above satellite
View from above satellite

Ground track
Ground track

The orbit data is extracted from the following two-line orbital elements,

1 00503U 62068A   17349.20168385 -.00000031  00000-0  00000+0 0  9991
2 00503  47.5084  79.0965 2840150  52.6314 337.7698  7.78160399563923
Epoch (UTC): 15 December 2017 04:50:25
Eccentricity: 0.2840150
inclination: 47.5084°
perigee height: 1323 km
apogee height: 7434 km
right ascension of ascending node: 79.0965°
argument of perigee: 52.6314°
revolutions per day: 7.78160399
mean anomaly at epoch: 337.7698°
orbit number at epoch: 56392

The dashed part of the orbit path shows where the satellite is in the earth's shadow,  

DLR